DH1NAI-6 Weather Reports


time (UTC)temp
C
wind
direction
speed
KPH
gust
KPH
rain 1hr
cm
rain 24hr
cm
rain mn
cm
humidity
%
barometer
mb
20260506191320 12 171 0.0 0.0 0.00 0.08 0.00 91 1004.2
20260506190313 12 162 0.0 1.6 0.00 0.08 0.00 92 1004.1
20260506185306 12 160 1.6 1.6 0.00 0.08 0.00 91 1003.8
20260506184256 12 162 0.0 1.6 0.00 0.08 0.00 93 1003.8
20260506183248 12 161 1.6 1.6 0.00 0.08 0.00 92 1003.9
20260506182224 12 154 3.2 3.2 0.00 0.08 0.00 91 1003.7
20260506181217 12 166 1.6 3.2 0.00 0.08 0.00 91 1003.8
20260506180208 13 166 0.0 0.0 0.00 0.08 0.00 88 1003.7
20260506175201 13 165 1.6 1.6 0.00 0.08 0.00 85 1003.7
20260506174152 13 163 0.0 0.0 0.00 0.08 0.00 82 1003.8
20260506173145 14 164 0.0 0.0 0.00 0.08 0.00 82 1003.7
20260506172132 14 183 0.0 0.0 0.00 0.08 0.00 81 1003.4
20260506171129 15 200 0.0 1.6 0.00 0.08 0.00 79 1003.5
20260506170120 15 234 0.0 1.6 0.00 0.08 0.00 77 1003.3
20260506165056 15 177 0.0 0.0 0.00 0.08 0.00 76 1003.2
20260506164033 15 180 1.6 1.6 0.00 0.08 0.00 74 1003.2
20260506163024 15 165 0.0 0.0 0.00 0.08 0.00 73 1003.6
20260506162017 15 157 0.0 0.0 0.00 0.08 0.00 73 1003.5
20260506161008 15 208 1.6 1.6 0.00 0.08 0.00 71 1003.4
20260506160001 16 179 0.0 0.0 0.00 0.08 0.00 72 1003.6
20260506154952 16 11 0.0 0.0 0.00 0.08 0.00 71 1003.4
20260506153945 16 163 1.6 3.2 0.00 0.08 0.00 70 1003.5
20260506152932 17 202 3.2 3.2 0.00 0.08 0.00 68 1003.7
20260506151912 16 131 0.0 0.0 0.00 0.08 0.00 68 1003.7
20260506150904 17 330 1.6 3.2 0.00 0.08 0.00 67 1003.7
20260506145856 16 188 1.6 1.6 0.00 0.08 0.00 69 1003.7
20260506144833 16 184 0.0 1.6 0.00 0.08 0.00 68 1003.9
20260506143824 17 244 3.2 4.8 0.00 0.08 0.00 67 1003.8
20260506142817 17 254 1.6 3.2 0.00 0.08 0.00 64 1003.8
20260506141808 17 209 3.2 4.8 0.00 0.08 0.00 65 1003.9
20260506140801 17 147 0.0 1.6 0.00 0.08 0.00 69 1003.8
20260506135752 17 181 4.8 6.4 0.00 0.08 0.00 67 1003.8
20260506134745 16 186 4.8 6.4 0.00 0.08 0.00 67 1003.7
20260506133736 16 183 1.6 1.6 0.00 0.08 0.00 69 1003.9
20260506132729 16 116 1.6 1.6 0.00 0.08 0.00 71 1004.1
20260506131720 16 136 0.0 0.0 0.00 0.08 0.00 72 1004.3
20260506130657 16 219 1.6 3.2 0.00 0.08 0.00 73 1004.0
20260506125648 16 273 8.0 9.7 0.00 0.08 0.00 72 1004.3
20260506124624 16 242 0.0 1.6 0.00 0.08 0.00 70 1004.3
20260506123617 16 173 1.6 4.8 0.00 0.08 0.00 71 1004.3
20260506122608 16 115 1.6 3.2 0.00 0.08 0.00 71 1004.4
20260506121601 16 273 0.0 0.0 0.00 0.08 0.00 76 1004.4
20260506120552 15 288 1.6 3.2 0.00 0.08 0.00 76 1004.2
20260506115545 15 146 0.0 1.6 0.00 0.08 0.00 76 1004.4
20260506114532 16 191 3.2 4.8 0.00 0.08 0.00 74 1004.5
20260506113529 16 100 0.0 1.6 0.00 0.08 0.00 76 1004.5
20260506112520 15 114 0.0 1.6 0.00 0.08 0.00 79 1004.4
20260506111456 14 170 0.0 1.6 0.00 0.08 0.00 83 1004.6
20260506110448 14 276 0.0 0.0 0.00 0.08 0.00 84 1004.5
20260506105424 13 170 1.6 3.2 0.00 0.08 0.00 85 1004.6
20260506104417 14 183 6.4 6.4 0.00 0.08 0.00 84 1004.6
20260506103409 14 131 0.0 1.6 0.00 0.08 0.00 84 1004.5
20260506102401 14 187 1.6 1.6 0.00 0.08 0.00 85 1004.5
20260506101352 13 143 0.0 1.6 0.00 0.08 0.00 86 1004.6
20260506100345 13 151 0.0 0.0 0.00 0.08 0.00 86 1004.7
20260506095332 14 193 4.8 6.4 0.00 0.08 0.00 85 1004.5
20260506094329 15 144 3.2 4.8 0.00 0.08 0.00 83 1004.4
20260506093320 13 266 1.6 3.2 0.00 0.08 0.00 88 1004.5
20260506092256 13 163 4.8 6.4 0.00 0.08 0.00 88 1004.4
20260506091249 13 289 1.6 3.2 0.00 0.08 0.00 89 1004.7
20260506090224 12 184 1.6 1.6 0.00 0.08 0.00 91 1004.4
20260506085217 12 188 3.2 4.8 0.00 0.08 0.00 91 1004.3
20260506084209 12 161 4.8 4.8 0.00 0.08 0.00 91 1004.2
20260506083201 12 259 4.8 6.4 0.00 0.08 0.00 91 1004.3
20260506082153 12 334 1.6 3.2 0.00 0.08 0.00 91 1004.2
20260506081145 12 271 3.2 4.8 0.00 0.08 0.00 95 1004.2
20260506080132 11 179 1.6 1.6 0.00 0.08 0.00 96 1004.0
20260506073113 11 87 1.6 1.6 0.00 0.08 0.00 97 1003.9
20260506072105 12 191 0.0 1.6 0.00 0.08 0.00 98 1003.8
20260506071057 11 184 3.2 3.2 0.00 0.08 0.00 98 1003.8
20260506062017 10 12 1.6 4.8 0.00 0.08 0.00 99 1004.0
20260506060953 10 243 3.2 6.4 0.00 0.08 0.00 99 1004.0
20260506044849 10 184 3.2 4.8 0.00 0.08 0.00 99 1004.0
20260506043841 10 31 1.6 1.6 0.00 0.08 0.00 99 1003.8
20260506042833 10 179 1.6 1.6 0.00 0.08 0.00 99 1003.6
20260506041825 10 19 4.8 4.8 0.00 0.08 0.00 99 1003.8
20260506040818 10 233 1.6 3.2 0.00 0.08 0.00 99 1003.6
20260506035809 10 312 0.0 1.6 0.10 0.05 0.00 99 1003.5
20260506034801 10 280 6.4 6.4 0.10 0.05 0.00 99 1003.5
20260506033753 10 129 1.6 3.2 0.10 0.05 0.00 99 1003.6
20260506032745 10 205 4.8 9.7 0.10 0.05 0.00 99 1003.5
20260506031737 10 193 1.6 1.6 0.00 0.03 0.00 99 1003.5
20260506030729 10 17 0.0 1.6 0.00 0.03 0.00 99 1003.5
20260506025721 10 192 1.6 3.2 0.10 0.03 0.00 99 1003.6
20260506024713 10 182 0.0 0.0 0.10 0.03 0.00 99 1003.7
20260506022657 10 178 1.6 3.2 0.10 0.03 0.00 99 1003.7
20260506021649 10 207 3.2 3.2 0.10 0.03 0.00 99 1003.6
20260506020625 10 144 1.6 1.6 0.10 0.03 0.00 99 1003.9
20260506015617 10 226 1.6 3.2 0.00 0.00 0.00 99 1003.8
20260506014613 10 156 0.0 1.6 0.00 0.00 0.00 99 1003.9
20260506013601 10 246 3.2 4.8 0.00 0.00 0.00 99 1004.0
20260506012553 10 144 0.0 0.0 0.00 0.00 0.00 99 1004.0
20260506011545 10 177 0.0 0.0 0.00 0.00 0.00 99 1004.0
20260506010537 10 104 0.0 0.0 0.00 0.00 0.00 99 1004.0
20260506005529 10 171 1.6 1.6 0.00 0.00 0.00 99 1003.9
20260506004521 10 111 1.6 3.2 0.00 0.00 0.00 99 1004.2
20260506003457 10 164 1.6 1.6 0.00 0.00 0.00 99 1004.1
20260506002449 10 120 0.0 1.6 0.00 0.00 0.00 99 1004.1
20260506001425 10 109 1.6 1.6 0.00 0.00 0.00 99 1004.2
20260506000417 10 18 3.2 3.2 0.00 0.00 0.00 99 1004.5
20260505235409 10 162 1.6 1.6 0.00 0.00 0.00 99 1004.5
20260505234401 10 166 1.6 1.6 0.00 0.00 0.00 99 1004.6
20260505233353 10 156 3.2 4.8 0.00 0.00 0.00 99 1004.5
20260505232345 10 145 0.0 1.6 0.00 0.00 0.00 99 1004.5
20260505231332 10 206 3.2 3.2 0.00 0.00 0.00 99 1004.4
20260505230313 10 173 0.0 0.0 0.00 0.00 0.00 99 1004.3
20260505225306 10 185 1.6 4.8 0.00 0.00 0.00 99 1004.3
20260505224257 10 181 0.0 1.6 0.00 0.00 0.00 99 1004.2
20260505223249 10 186 3.2 3.2 0.00 0.00 0.00 99 1004.2
20260505222225 10 253 3.2 3.2 0.00 0.00 0.00 99 1004.4
20260505221217 10 214 1.6 3.2 0.00 0.00 0.00 99 1004.3
20260505220209 10 213 4.8 6.4 0.00 0.00 0.00 99 1004.5
20260505215201 10 179 0.0 0.0 0.00 1.57 0.00 99 1004.6
20260505214153 10 184 0.0 0.0 0.00 1.57 0.00 99 1004.6
20260505213145 10 129 0.0 0.0 0.00 1.57 0.00 99 1004.6
20260505212132 10 160 1.6 1.6 0.00 1.57 0.00 99 1004.7
20260505211130 10 188 1.6 1.6 0.00 1.57 0.00 99 1004.6
20260505210121 10 171 3.2 3.2 0.00 1.57 0.00 99 1004.9
20260505205057 10 163 3.2 3.2 0.00 1.57 0.00 99 1004.7
20260505204049 10 164 1.6 1.6 0.00 1.57 0.00 99 1004.9
20260505203025 10 308 1.6 1.6 0.00 1.57 0.00 99 1004.8
20260505202017 10 156 0.0 1.6 0.00 1.57 0.00 99 1004.9
20260505201009 10 167 0.0 0.0 0.00 1.57 0.00 99 1004.8
20260505200001 10 186 0.0 1.6 0.10 1.57 0.00 99 1004.4
20260505194953 10 168 0.0 0.0 0.10 1.57 0.00 99 1004.3
20260505193946 10 162 0.0 0.0 0.10 1.57 0.00 99 1004.2
20260505192932 10 176 0.0 0.0 0.10 1.55 0.00 99 1004.0